WetterOnline ( https://www.wetteronline.de )

Wetter aktuell Friesoythe

Aktuelles Wetter: Friesoythe-Altenoythe (6m)

6-stündlich | Neueste Meldungen
Ortszeit Temperatur Wetter
So, 09.08. 8:00 21.4° C bedeckt
So, 09.08. 2:00 17.5° C bedeckt
Sa, 08.08. 20:00 28.2° C leicht bewölkt
Sa, 08.08. 14:00 31.7° C wolkenlos
Sa, 08.08. 8:00 19.2° C leicht bewölkt
Sa, 08.08. 2:00 15.7° C wolkenlos
Fr, 07.08. 20:00 29.9° C wolkenlos
Fr, 07.08. 14:00 30.8° C leicht bewölkt
Ortszeit Temperatur Wetter
So, 09.08. 11:00 25.0° C bedeckt
So, 09.08. 10:50 25.0° C bedeckt
So, 09.08. 10:40 25.0° C bedeckt
So, 09.08. 10:30 24.7° C bedeckt
So, 09.08. 10:20 24.7° C bedeckt
So, 09.08. 10:10 24.5° C bedeckt
So, 09.08. 10:00 24.2° C bedeckt
So, 09.08. 9:30 23.4° C bedeckt
So, 09.08. 9:00 22.8° C bedeckt
So, 09.08. 8:30 21.9° C bedeckt
So, 09.08. 8:00 21.4° C bedeckt
Ortszeit Relative Feuchte Sichtweite
So, 09.08. 8:00 78% 30 km
So, 09.08. 2:00 93% 14 km
Sa, 08.08. 20:00 54% 55 km
Sa, 08.08. 14:00 40% 50 km
Sa, 08.08. 8:00 84% 21 km
Sa, 08.08. 2:00 93% 30 km
Fr, 07.08. 20:00 54% 60 km
Fr, 07.08. 14:00 31% >70 km
Ortszeit Relative Feuchte Sichtweite
So, 09.08. 11:00 61% 50 km
So, 09.08. 10:50 61% -
So, 09.08. 10:40 61% -
So, 09.08. 10:30 63% 50 km
So, 09.08. 10:20 63% -
So, 09.08. 10:10 63% -
So, 09.08. 10:00 66% 55 km
So, 09.08. 9:30 70% 40 km
So, 09.08. 9:00 71% 35 km
So, 09.08. 8:30 74% 40 km
So, 09.08. 8:00 78% 30 km
Ortszeit Niederschlagsmenge Niederschlagsart
So, 09.08. 8:00 0.0 l/m2 in 12 Std. -
So, 09.08. 2:00 0.0 l/m2 in 6 Std. -
Sa, 08.08. 20:00 0.0 l/m2 in 12 Std. -
Sa, 08.08. 14:00 0.0 l/m2 in 6 Std. -
Sa, 08.08. 8:00 0.0 l/m2 in 12 Std. -
Sa, 08.08. 2:00 0.0 l/m2 in 6 Std. -
Fr, 07.08. 20:00 0.0 l/m2 in 12 Std. -
Fr, 07.08. 14:00 0.0 l/m2 in 6 Std. -
Ortszeit Niederschlagsmenge Niederschlagsart
So, 09.08. 11:00 0.0 l/m2 in 1 Std. Regen
So, 09.08. 10:50 keine Meldung -
So, 09.08. 10:40 keine Meldung -
So, 09.08. 10:30 0.0 l/m2 in 1 Std. -
So, 09.08. 10:20 keine Meldung -
So, 09.08. 10:10 keine Meldung -
So, 09.08. 10:00 0.1 l/m2 in 1 Std. Regen
So, 09.08. 9:30 0.1 l/m2 in 1 Std. Schneeregen
So, 09.08. 9:00 0.0 l/m2 in 1 Std. -
So, 09.08. 8:30 0.0 l/m2 in 1 Std. -
So, 09.08. 8:00 0.0 l/m2 in 1 Std. -
Ortszeit Stärke Spitze Richtung
km/h Bft. km/h Grad Sektor
So, 09.08. 8:00 7 2 18 60° NO
So, 09.08. 2:00 4 1 18 30° NO
Sa, 08.08. 20:00 11 2 22 20° N
Sa, 08.08. 14:00 9 2 24 50° NO
Sa, 08.08. 8:00 0 0 7 - -
Sa, 08.08. 2:00 6 1 13 70° O
Fr, 07.08. 20:00 0 0 18 - -
Fr, 07.08. 14:00 11 2 22 160° S
Ortszeit Stärke Spitze Richtung
km/h Bft. km/h Grad Sektor
So, 09.08. 11:00 9 2 15 60° NO
So, 09.08. 10:50 9 2 - 60° NO
So, 09.08. 10:40 9 2 - 40° NO
So, 09.08. 10:30 7 2 14 50° NO
So, 09.08. 10:20 7 2 - 50° NO
So, 09.08. 10:10 9 2 - 30° NO
So, 09.08. 10:00 11 2 18 20° N
So, 09.08. 9:30 7 2 14 60° NO
So, 09.08. 9:00 7 2 18 70° O
So, 09.08. 8:30 13 3 17 60° NO
So, 09.08. 8:00 7 2 18 60° NO
Ortszeit Untergrenze Bedeckung Gattung
total tief tief mittel hoch
So, 09.08. 8:00 4200 m 8/8 8/8 - - -
So, 09.08. 2:00 4800 m 8/8 8/8 - - -
Sa, 08.08. 20:00 6000 m 2/8 2/8 - - -
Sa, 08.08. 14:00 - 0/8 0/8 - - -
Sa, 08.08. 8:00 8400 m 8/8 0/8 - - -
Sa, 08.08. 2:00 - 0/8 0/8 - - -
Fr, 07.08. 20:00 - 0/8 0/8 - - -
Fr, 07.08. 14:00 9000 m 3/8 0/8 - - -
Ortszeit Bedeckungsgrad in Achtel und Wolkenuntergrenze
So, 09.08. 11:00 8(4200m)
So, 09.08. 10:50 8(4200m)
So, 09.08. 10:40 8(4500m) 8(5700m)
So, 09.08. 10:30 5(4500m) 8(5100m) 8(5700m)
So, 09.08. 10:20 5(4500m) 8(5100m) 8(5700m)
So, 09.08. 10:10 7(4800m) 8(5700m) 8(6900m)
So, 09.08. 10:00 6(4500m) 8(5400m) 8(6900m)
So, 09.08. 9:30 8(4200m) 8(6600m)
So, 09.08. 9:00 3(3600m) 8(4200m)
So, 09.08. 8:30 8(4200m)
So, 09.08. 8:00 8(4200m)
Ortszeit Luftdruck NN (hPa) Tendenz (hPa in 3 Std.)
So, 09.08. 8:00 1020 + 0,2
So, 09.08. 2:00 1020 - 0,3
Sa, 08.08. 20:00 1020 0,0
Sa, 08.08. 14:00 1020 - 0,7
Sa, 08.08. 8:00 1020 + 0,6
Sa, 08.08. 2:00 1020 + 0,1
Fr, 07.08. 20:00 1020 - 0,4
Fr, 07.08. 14:00 1021 - 0,7
Ortszeit Luftdruck NN (hPa) Tendenz (hPa in 3 Std.)
So, 09.08. 11:00 1020 + 0,2
So, 09.08. 10:50 1020 keine Meldung
So, 09.08. 10:40 1020 keine Meldung
So, 09.08. 10:30 1020 + 0,4
So, 09.08. 10:20 1020 keine Meldung
So, 09.08. 10:10 1020 keine Meldung
So, 09.08. 10:00 1020 + 0,2
So, 09.08. 9:30 1020 + 0,2
So, 09.08. 9:00 1020 + 0,2
So, 09.08. 8:30 1020 0,0
So, 09.08. 8:00 1020 + 0,2
Ortszeit Schneehöhe (cm)
So, 09.08. 8:00 -
So, 09.08. 2:00 -
Sa, 08.08. 20:00 -
Sa, 08.08. 14:00 -
Sa, 08.08. 8:00 -
Sa, 08.08. 2:00 -
Fr, 07.08. 20:00 -
Fr, 07.08. 14:00 -
Ortszeit Schneehöhe (cm)
So, 09.08. 11:00 -
So, 09.08. 10:50 -
So, 09.08. 10:40 -
So, 09.08. 10:30 -
So, 09.08. 10:20 -
So, 09.08. 10:10 -
So, 09.08. 10:00 -
So, 09.08. 9:30 -
So, 09.08. 9:00 -
So, 09.08. 8:30 -
So, 09.08. 8:00 -
Link zu dieser Seite / Seite empfehlen

Das Wetter in ...